Regional Weather Roundup
Issued by NWS Pendleton, OR

Home | Current Version | Previous Version | Text Only | Print | Product List | Glossary On
Versions: 1 2 3 4 5 6 7 8 9 10 11 12 13 14 15 16 17 18 19 20 21 22 23 24 25 26 27 28 29 30 31 32 33 34 35 36 37 38 39 40 41 42 43 44 45 46 47 48 49 50
000
ASUS46 KPDT 201225
RWRPDT
PENDLETON REGIONAL WEATHER ROUNDUP
NATIONAL WEATHER SERVICE PENDLETON OREGON
400 AM PST TUE FEB 20 2018

NOTE: FAIR INDICATES FEW OR NO CLOUDS BELOW 12,000 FEET WITH NO
SIGNIFICANT WEATHER AND/OR OBSTRUCTIONS TO VISIBILITY.

# INDICATES UNOFFICIAL STATION AND DATA

WAZ520-201310-
EAST SLOPES OF WASHINGTON CASCADES

CITY            SKY/WX      TMP DP  RH  WIND    PRES   REMARKS
#BULLFROG       N/A         15  11  84  CALM    N/A
#CLE ELUM HS    N/A         17  10  73  CALM    30.07S
#EASTON DOT     N/A         15  12  88  CALM    N/A
#ELK HTS DOT    N/A         15  14  96  CALM    N/A
#GLENWOOD       N/A         14  12  92  CALM    30.24S
#NELSON 3SW     N/A         13  11  91  CALM    30.47R
#NILE           N/A         11   8  87  CALM    29.44S
#TROUT LAKE 1NE N/A         16  14  92  CALM    30.25R
#TROUT LAKE 1E  N/A         13  11  91  CALM    30.14S
$$

WAZ521-201310-
SIMCOE HIGHLANDS

CITY            SKY/WX      TMP DP  RH  WIND    PRES   REMARKS
#BICKLETON HS   N/A         10   4  76  W5      29.68R
#SATUS PASS DOT N/A          9   5  83  CALM    N/A
#CENTERVILLE 1SWN/A         17  12  80  CALM    30.22R
#GOLDENDALE 1NE N/A         14  -3  46  N5      N/A
#GOLDENDALE 4W  N/A         15   1  53  NE5     30.18R
#GOODNOE HILLS  N/A         18   5  56  SE2     30.07S
#LYLE 6NE       N/A         19  16  88  CALM    30.24S
#PITT 4SE       N/A         18  15  88  CALM    30.29R
$$

WAZ026-201310-
KITTITAS VALLEY

CITY            SKY/WX      TMP DP  RH  WIND    PRES   REMARKS
ELLENSBURG AP   CLOUDY      19   9  64  CALM    30.13S
6HR MIN TEMP:   17; 6HR MAX TEMP:   25;

#ELLENSBURG CWU N/A         17   9  70  CALM    30.18R
#ELLENSBURG 3NE N/A         17  10  73  N3      28.21R
#ELLENSBURG 1E  N/A         16   9  73  CALM    30.28R
#KITTITAS 3S    N/A         12   8  84  CALM    30.23R
#MANASTASH RDG  N/A         16  16  100 SE1     N/A
#ROCKY CYN DOT  N/A         17  12  80  NW2     N/A
#RYEGRASS DOT   N/A         16   1  51  CALM    N/A
$$

WAZ027-201310-
YAKIMA VALLEY

CITY            SKY/WX      TMP DP  RH  WIND    PRES   REMARKS
SUNNYSIDE AP    PTCLDY      14  10  84  CALM    30.23R
YAKIMA AIRPORT  N/A         N/A N/A N/A MISG    30.21R
YAKIMA-VAGABOND MOCLEAR     12   6  76  CALM    30.15S
6HR MIN TEMP:   11; 6HR MAX TEMP:   19;

#DONALD 2NE     N/A         18  -3  38  NW1     29.04R
#GRANDVIEW      N/A         18   8  64  CALM    30.29R
#MABTON         N/A         16  13  88  CALM    30.22R
#MOXEE 2E       N/A         35  N/A N/A E3      29.93S
#NACHES 2SW     N/A         18  11  74  CALM    30.12R
#PARKER DOT     N/A         20  12  71  CALM    30.20R
#TERRACE HTS    N/A         13   8  80  CALM    30.24R
#TOPPENISH      N/A         18  12  77  CALM    30.19R
#I82 S UMTANUM RN/A         15   5  64  NE2     N/A
#UNION GAP DOT  N/A         15  11  84  CALM    30.24R
#W YAKIMA       N/A         16  10  77  CALM    30.28R
#WHITE SWAN 5E  N/A          9   5  83  CALM    30.29R
#WILEY CITY 3W  N/A         14   4  64  CALM    30.14R
#ZILLAH DOT     N/A         18  11  74  N1      N/A
$$

WAZ028-201310-
LOWER COLUMBIA BASIN...WASHINGTON

CITY            SKY/WX      TMP DP  RH  WIND    PRES   REMARKS
PASCO           MOCLDY      19  11  70  E3      30.26R
6HR MIN TEMP:   18; 6HR MAX TEMP:   26;

PROSSER AWOS    N/A         19  10  67  N5      30.26R
RICHLAND AWOS   MOCLDY      16  11  80  CALM    30.26R
#BENTON CITY    N/A         16  11  80  CALM    30.18R
#CONNELL 5N     N/A         16  11  80  NE1     30.28R
#CONNELL 5NW    N/A         16  11  80  CALM    30.23R
#ELTOPIA 6NW    N/A         18  13  80  CALM    29.18R
#KAHLOTUS       N/A         13   9  84  S7      30.28R
#KENNEWICK 3S   N/A         21   9  59  CALM    30.28R
#PATERSON       N/A         19  11  70  CALM    30.26R
#PROSSER DOT    N/A         21  12  68  CALM    30.23S
#SAGEMOOR 2W    N/A         18  12  77  E1      30.14S
#TOUCHET 2S     N/A         19  12  74  CALM    30.26S
#WEST PASCO     N/A         16   9  73  CALM    30.26R
$$

WAZ029-201310-
FOOTHILLS OF THE BLUES...WASHINGTON

CITY            SKY/WX      TMP DP  RH  WIND    PRES   REMARKS
WALLA WALLA AP  PTCLDY      20   9  62  E7      30.19S
6HR MIN TEMP:   20; 6HR MAX TEMP:   22;

#CLYDE 6NW      N/A         19  10  67  SE7     30.26S
#DELANEY DOT    N/A         11   7  83  CALM    30.25S
#LOWDEN 2SE     N/A         21  12  68  E2      30.21F
#PLEASANT VIEW 1N/A         17   9  70  SE1     30.33R
#PRESCOTT       N/A         17  12  80  CALM    30.27S
#WHITMAN COLLEGEN/A         22  11  62  E2      30.33S
#WAITSBURG 5S   N/A         17  10  73  E2      30.39S
#WAITSBURG 6SSE N/A         18   6  59  E2      30.11S
#WALLA WALLA 5E N/A         20  11  67  E5      N/A
#WHITMAN MISSIONN/A         22  12  65  CALM    30.29S
$$

WAZ030-201310-
BLUE MOUNTAINS...WASHINGTON

CITY            SKY/WX      TMP DP  RH  WIND    PRES   REMARKS
#DIXIE 5SE      N/A         13   6  73  S3      29.98S
$$

ORZ009-041-WAZ024-201310-
COLUMBIA RIVER GORGE

CITY            SKY/WX      TMP DP  RH  WIND    PRES   REMARKS
HOOD RIVER AP   CLOUDY      25  23  92  CALM    30.23R
THE DALLES AP   PTCLDY      22  16  77  E5      30.25S
6HR MIN TEMP:   22; 6HR MAX TEMP:   25;

#ARLINGTON AIRPON/A         17  12  80  E6      30.28S
#ARLINGTON HS   N/A         15   8  73  W1      30.19S
#CELILO DOT     N/A         24  14  65  SE2     N/A
#LYLE           N/A         25  20  81  NE1     30.27S
#MARYHILL       N/A         19  14  80  N1      N/A
#MURDOCK        N/A         23  19  84  CALM    30.23S
#RUFUS DOT      N/A         21  N/A N/A SE10    N/A
#SMITHVILLE     N/A         22  19  88  CALM    30.20S

$$

ORZ510-201310-
NORTH CENTRAL OREGON

CITY            SKY/WX      TMP DP  RH  WIND    PRES   REMARKS
#ANTELOPE       N/A         13   8  80  N1      30.16S
#CHENOWITH 1W   N/A         19  17  92  NW2     N/A
#COW CYN RST AREN/A         16   8  70  CALM    N/A
#DUFUR          N/A         14  11  88  CALM    30.23R
#DUFUR 9E       N/A         20  13  74  CALM    30.30S
#GRASS VALLEY 1SN/A         17  13  84  S3      30.10F
#KENT DOT       N/A         14   5  67  S5      N/A
#MAUPIN SCHOOL  N/A         19  13  77  CALM    30.24S
#SHANIKO 5WSW   N/A         15  N/A N/A S6      N/A
#SHANIKO 4NW    N/A         16  10  77  SW1     30.02S
#TYGH VALLEY 2NEN/A         16  12  84  CALM    30.25F
#WAPANITIA AIRPON/A         15  12  88  CALM    30.28S
#WASCO DOT      N/A         14   9  80  S1      N/A
#WASCO 5NE      N/A         10   5  80  CALM    30.27S
$$

ORZ511-201310-
CENTRAL OREGON

CITY            SKY/WX      TMP DP  RH  WIND    PRES   REMARKS
BEND AIRPORT    MOCLDY      16   9  73  SE3     30.06F
PRINEVILLE AP   CLOUDY      12   9  87  CALM    30.07F
REDMOND AIRPORT CLOUDY      13   8  80  CALM    30.07F
6HR MIN TEMP:   11; 6HR MAX TEMP:   18;

#ASHWOOD SCHOOL N/A         12   9  87  CALM    30.06S
#BEND 1SW       N/A         13  10  87  CALM    N/A
#BEND-AWBREY    N/A         16  11  80  SW3     30.28S
#BEND-KIM LN    N/A         11   7  83  CALM    30.23S
#CULVER         N/A         15  10  80  CALM    30.11S
#CULVER 8W      N/A         15   5  64  S1      30.07F
#LAKE BILLY CHINN/A         16  N/A N/A CALM    30.25R
#POWELL BUTTE   N/A         17   6  61  SE1     29.99F
#PRINEVILLE     N/A         15   9  77  CALM    30.37F
#PRINEVILLE 3N  N/A         14  10  84  E1      30.27S
#WARM SPRINGS   N/A         18  13  80  CALM    30.08S

$$


ORZ509-201310-
EAST SLOPES OF OREGON CASCADES

CITY            SKY/WX      TMP DP  RH  WIND    PRES   REMARKS
SISTERS AWOS    N/A          9   3  76  CALM    30.01S
#BLUE BOX PASS  N/A         16  N/A N/A NW1     N/A
#CAMP SHERMAN   N/A         10   5  80  CALM    30.31S
#LA PINE DOT    N/A         13   8  80  CALM    N/A
#LA PINE 4NW    N/A         10   5  80  CALM    30.34F
#LAVA BUTTE DOT N/A         14   7  73  S3      N/A
#SISTERS ODOT   N/A          8   4  83  CALM    N/A
#SISTERS 3N     N/A          8  -6  52  CALM    30.32R
#SUNRIVER       N/A          8   6  91  CALM    30.31F
#TUMALO 3W      N/A         15   7  70  CALM    30.14S
#WANOGA BUTTE D N/A          8   2  76  E1      N/A

$$

ORZ044-201310-
LOWER COLUMBIA BASIN...OREGON

CITY            SKY/WX      TMP DP  RH  WIND    PRES   REMARKS
HERMISTON       MOCLDY      19  12  74  E6      30.22S
6HR MIN TEMP:   15; 6HR MAX TEMP:   19;

#BOARDMAN SCHOOLN/A         16  10  77  CALM    30.25R
#BOARDMAN 8SW   N/A         19  14  80  N3      30.27R
#ECHO 8SW       N/A         20  14  77  CALM    30.23S
#I-84 EX 198 DOTN/A         21  11  65  NE8     N/A
#IONE SCHOOL    N/A         17   6  61  CALM    30.29R
#UMATILLA       N/A         18  10  70  E1      30.20S
$$

ORZ507-201310-
NORTHERN FOOTHILLS OF THE BLUES

CITY            SKY/WX      TMP DP  RH  WIND    PRES   REMARKS
PENDLETON AIRPT CLOUDY      16   9  73  S6      30.16F
6HR MIN TEMP:   12; 6HR MAX TEMP:   17;

#ADAMS 3WNW     N/A         18  11  74  SE1     30.30S
#ATHENA         N/A         18   8  64  SE5     30.32S
#HELIX SCHOOL   N/A         19  12  74  SE8     30.29S
#HELIX 3N       N/A         18  11  74  SE8     30.14F
#HOLDMAN 5SE    N/A         20  14  77  E3      30.16S
#HOLDMAN 6E     N/A         17  11  77  W1      30.07S
#M-F GROVE ELEM N/A         21   5  49  E3      30.16F
#M-FREEWATER 5SEN/A         18   7  61  E10     30.17F
#PENDLETON DNTN N/A         15   3  58  CALM    N/A
#PDT AQUATIC CTRN/A         14   4  64  CALM    30.18S
#PDT SUNRIDGE   N/A         13   9  84  CALM    30.22S
#PENDLETON 6SE  N/A         16  10  77  CALM    30.26S
#PENDLETON 7NW  N/A         17   9  70  E7      32.13S
#PILOT ROCK 1S  N/A         18   5  56  CALM    30.16S
#PILOT ROCK     N/A         18  10  70  CALM    30.16S
#TUTUILLA       N/A         11   8  87  CALM    30.25R
#UMAPINE 2E     N/A         23  12  62  SE6     30.19F

$$

ORZ508-201310-
SOUTHERN FOOTHILLS OF THE BLUES

CITY            SKY/WX      TMP DP  RH  WIND    PRES   REMARKS
#AJAX           N/A         18   3  51  CALM    30.25S
#CONDON 5W      N/A         13   7  76  W5      30.01S
#FOSSIL SCHOOL  N/A         18  11  74  CALM    30.02F
#HEPPNER EOC    N/A         22  13  68  SW3     30.22R
#HEPPNER 4NE    N/A         19  13  77  CALM    30.29S
#LEXINGTON 2SE  N/A         25  16  68  CALM    30.12S
#MIKKALO        N/A         21   9  59  S2      30.24F
#OLEX 4N        N/A         19  13  77  CALM    30.16S
#RUGGS 5NE      N/A         17  10  73  CALM    30.20S
#RUGGS 2SW      N/A         17  10  73  SW8     30.32S

$$

ORZ502-503-201310-
BLUE MOUNTAINS

CITY            SKY/WX      TMP DP  RH  WIND    PRES   REMARKS
MEACHAM         CLOUDY      -3  -8  78  CALM    30.02S
6HR MIN TEMP:   -13; 6HR MAX TEMP:   -3;

#BATTLE MTN DOT N/A          2  -2  83  S6      N/A
#GRANITE        N/A         -5  N/A N/A CALM    29.62S
#HARDMAN 10S    N/A          5   2  87  CALM    30.48R
#LADD CYN SMT   N/A          1  -4  79  CALM    N/A
#LADD CREEK ODOTN/A          4  -33 15  S3      N/A
#N POWDER DOT   N/A          9   3  76  N2      N/A
#PIKES PEAK     N/A         14  -2  48  CALM    27.99S
#SUMMERVILLE 5NWN/A          2   0  91  CALM    28.04R
#TOLLGATE       N/A          3   0  87  CALM    29.96
#TROY SCHOOL    N/A         11   4  73  W1      30.21R
#UKIAH          N/A          3  -1  83  CALM    30.31R
#WESTON 4E      N/A         11   5  76  E7      30.29S
$$

ORZ505-201310-
JOHN DAY BASIN

CITY            SKY/WX      TMP DP  RH  WIND    PRES   REMARKS
JOHN DAY        CLOUDY      10   3  73  CALM    30.07R
#ANTELOPE 9ESE  N/A         16  11  80  CALM    N/A
#DAYVILLE SCHOOLN/A         14   2  58  E3      30.11S
#MITCHELL 8NW   N/A         16   8  70  CALM    30.35S
#MONUMENT HS    N/A         14   2  58  NW5     30.14S
#MT. VERNON 5SE N/A          7   2  79  CALM    29.98S
#SPRAY SCHOOL   N/A         17  N/A N/A NE2     N/A
$$

ORZ506-201310-
OCHOCO AND JOHN DAY HIGHLANDS

CITY            SKY/WX      TMP DP  RH  WIND    PRES   REMARKS
#HORSE RIDGE DO N/A          4  -2  75  SE3     N/A
#IZEE 6NW       N/A          5   1  83  E2      N/A
#KEYES SMT DOT  N/A          9   4  80  E2      N/A
#PAULINA ODOT   N/A          9   3  76  E2      N/A
#PINE MTN OBS   N/A          8   5  87  CALM    N/A
#PRAIRIE CITY   N/A          8  -6  52  CALM    30.22F
#SENECA         N/A          1  N/A N/A CALM    N/A
#SENECA 9NW     N/A         -1  -5  83  CALM    30.34R
$$

ORZ049-201310-
GRANDE RONDE VALLEY

CITY            SKY/WX      TMP DP  RH  WIND    PRES   REMARKS
LA GRANDE       CLOUDY       7   2  79  CALM    30.15R
#COVE SCHOOL    N/A          6   1  79  CALM    30.12R
#COVE 6NW       N/A          8   4  83  CALM    30.36R
#ELGIN 3N       N/A          1  -11 56  CALM    30.10S
#ELGIN 1E       N/A          6   1  79  CALM    N/A
#IMBLER SCHOOL  N/A          6   1  79  CALM    30.09R
#ISLAND CITY 4N N/A         28  27  96  CALM    30.23F
#LADD CYN DOT   N/A          7   1  76  SE8     N/A
#UNION 1S       N/A          3  -1  83  CALM    30.37R
$$

ORZ050-201310-
WALLOWA COUNTY

CITY            SKY/WX      TMP DP  RH  WIND    PRES   REMARKS
JOSEPH AIRPORT  PTCLDY      -4  -8  82  CALM    30.01F
#ENTERPRISE HS  N/A         -5  -10 78  CALM    30.26R
#JOSEPH 3N      N/A         -13 -24 56  NE1     30.05S
#JOSEPH 3W      N/A         -1  -10 65  CALM    29.81R
#LOSTINE        N/A         -4  -8  82  CALM    30.15R
#LOSTINE 3SE    N/A         -4  -9  78  W3      30.07R
#MT HOWARD 8000 N/A         -6  -10 82  W2      29.53F
#WALLOWA LAKE   N/A          3  -4  72  SE2     29.98F
#WALLOWA SCHOOL N/A          0  -4  83  CALM    30.10S



$$



USA.gov is the U.S. government's official web portal to all federal, state and local government web resources and services.